DW8241 Weather Reports


time (UTC)temp
C
wind
direction
speed
KPH
gust
KPH
rain 1hr
cm
rain 24hr
cm
rain mn
cm
humidity
%
barometer
mb
20260509124503 3 321 3.2 11.3 0.00 0.05 0.00 76 1011.4
20260509123131 3 333 4.8 9.7 0.00 0.05 0.00 78 1011.3
20260509121613 2 318 1.6 6.4 0.00 0.05 0.00 83 1011.0
20260509120112 1 300 1.6 6.4 0.00 0.05 0.00 84 1010.8
20260509114558 0 309 3.2 6.4 0.00 0.05 0.00 84 1010.5
20260509113050 1 309 3.2 6.4 0.00 0.05 0.00 81 1010.4
20260509111600 1 344 1.6 4.8 0.00 0.05 0.00 82 1010.0
20260509110044 1 299 1.6 6.4 0.00 0.05 0.00 82 1009.8
20260509104545 1 331 3.2 6.4 0.00 0.05 0.00 80 1009.6
20260509103041 2 316 3.2 8.0 0.00 0.05 0.00 82 1009.3
20260509101553 3 309 1.6 4.8 0.00 0.05 0.00 82 1009.1
20260509100032 3 342 3.2 8.0 0.00 0.05 0.00 78 1008.9
20260509094536 3 8 1.6 8.0 0.00 0.05 0.00 76 1008.6
20260509093027 3 36 0.0 6.4 0.00 0.05 0.00 79 1008.4
20260509091535 3 334 1.6 6.4 0.00 0.05 0.00 78 1008.1
20260509090024 4 37 4.8 11.3 0.00 0.05 0.00 78 1007.8
20260509084522 4 8 3.2 11.3 0.00 0.05 0.00 79 1007.6
20260509083016 4 2 3.2 11.3 0.00 0.05 0.00 79 1007.2
20260509081523 4 39 3.2 9.7 0.00 0.05 0.00 80 1006.9
20260509080012 3 18 3.2 11.3 0.00 0.05 0.00 82 1006.7
20260509074508 3 307 3.2 8.0 0.00 0.05 0.00 83 1006.4
20260509073006 3 330 1.6 8.0 0.00 0.05 0.00 86 1006.3
20260509071505 3 314 4.8 12.9 0.00 0.05 0.00 93 1006.3
20260509070004 3 321 3.2 8.0 0.00 0.05 0.00 93 1006.1
20260509064619 3 300 3.2 6.4 0.00 0.05 0.00 92 1005.9
20260509063055 3 330 4.8 8.0 0.00 0.05 0.00 92 1006.0
20260509061551 4 309 3.2 4.8 0.00 0.05 0.00 91 1005.7
20260509060047 5 30 0.0 1.6 0.00 0.05 0.00 90 1005.6
20260509054556 5 30 0.0 3.2 0.00 0.05 0.00 88 1005.4
20260509053040 6 34 0.0 0.0 0.00 0.05 0.00 87 1005.0
20260509051538 7 34 0.0 0.0 0.00 0.05 0.00 85 1004.9
20260509050038 7 34 0.0 4.8 0.00 0.05 0.00 85 1005.0
20260509044533 7 37 3.2 9.7 0.00 0.05 0.05 86 1005.2
20260509043034 7 28 6.4 12.9 0.00 0.05 0.05 83 1005.2
20260509041558 7 48 0.0 1.6 0.00 0.05 0.05 85 1005.1
20260509040032 8 48 3.2 4.8 0.05 0.05 0.05 84 1004.9
20260509034529 8 49 0.0 6.4 0.05 0.05 0.05 81 1004.7
20260509033029 8 58 0.0 8.0 0.05 0.05 0.05 80 1004.9
20260509031534 8 44 3.2 16.1 0.05 0.05 0.05 79 1005.0
20260509030030 10 41 6.4 20.9 0.00 0.00 0.00 73 1005.0
20260509024527 12 17 9.7 20.9 0.00 0.00 0.00 64 1004.9
20260509023029 13 336 11.3 32.2 0.00 0.00 0.00 55 1004.4
20260509021533 13 317 6.4 19.3 0.00 0.00 0.00 45 1003.8
20260509020124 13 326 27.4 43.5 0.00 0.00 0.00 54 1003.0
20260509014526 15 294 16.1 35.4 0.00 0.00 0.00 47 1002.4
20260509013036 15 323 3.2 8.0 0.00 0.00 0.00 46 1001.5
20260509011523 16 321 3.2 8.0 0.00 0.00 0.00 43 1001.3
20260509010023 16 324 4.8 12.9 0.00 0.00 0.00 42 1001.3
20260509004522 17 333 6.4 16.1 0.00 0.00 0.00 41 1001.5
20260509003020 17 16 9.7 29.0 0.00 0.00 0.00 39 1001.6
20260509001518 17 355 9.7 22.5 0.00 0.00 0.00 39 1001.7
20260509000016 17 358 14.5 29.0 0.00 0.00 0.00 38 1001.9
20260508234514 18 317 12.9 29.0 0.00 0.00 0.00 37 1002.1
20260508233016 18 1 14.5 27.4 0.00 0.00 0.00 38 1002.2
20260508231510 17 295 14.5 35.4 0.00 0.00 0.00 39 1002.4
20260508230010 17 294 19.3 37.0 0.00 0.00 0.00 38 1002.5
20260508224514 18 324 19.3 32.2 0.00 0.00 0.00 39 1002.6
20260508223008 18 342 14.5 29.0 0.00 0.00 0.00 38 1002.9
20260508221504 17 360 16.1 32.2 0.00 0.00 0.00 39 1003.2
20260508220002 17 326 12.9 25.7 0.00 0.00 0.00 38 1003.3
20260508214602 17 316 8.0 19.3 0.00 0.00 0.00 39 1003.5
20260508213100 18 301 17.7 29.0 0.00 0.00 0.00 37 1003.6
20260508211558 17 286 12.9 33.8 0.00 0.00 0.00 39 1003.8
20260508210056 17 349 12.9 29.0 0.00 0.00 0.00 37 1003.9
20260508204557 17 359 12.9 22.5 0.00 0.00 0.00 37 1004.2
20260508203051 16 356 16.1 25.7 0.00 0.00 0.00 38 1004.4
20260508201549 16 302 11.3 29.0 0.00 0.00 0.00 40 1004.4
20260508200105 16 332 14.5 30.6 0.00 0.00 0.00 37 1004.5
20260508194545 16 331 17.7 27.4 0.00 0.00 0.00 37 1004.9
20260508193107 16 41 17.7 30.6 0.00 0.00 0.00 36 1004.8
20260508191545 15 360 14.5 33.8 0.00 0.00 0.00 37 1004.9
20260508190041 16 333 20.9 35.4 0.00 0.00 0.00 37 1005.0
20260508184541 15 340 19.3 30.6 0.00 0.00 0.00 37 1005.1
20260508183054 15 27 17.7 32.2 0.00 0.00 0.00 37 1005.2
20260508181552 15 342 16.1 33.8 0.00 0.00 0.00 38 1005.1
20260508180041 15 328 17.7 40.2 0.00 0.00 0.00 39 1005.2
20260508174539 15 315 16.1 33.8 0.00 0.00 0.00 39 1005.4
20260508173038 15 330 16.1 32.2 0.00 0.00 0.00 41 1005.1
20260508171537 15 319 19.3 40.2 0.00 0.00 0.00 41 1004.9
20260508170036 16 318 14.5 38.6 0.00 0.00 0.00 41 1004.9
20260508164538 15 345 16.1 38.6 0.00 0.00 0.00 39 1004.9
20260508163034 15 332 16.1 35.4 0.00 0.00 0.00 44 1004.8
20260508161531 15 334 17.7 35.4 0.00 0.00 0.00 42 1004.9
20260508160029 15 325 19.3 32.2 0.00 0.00 0.00 41 1005.0
20260508154543 15 308 19.3 37.0 0.00 0.00 0.00 42 1005.0
20260508153027 13 313 20.9 30.6 0.00 0.00 0.00 37 1004.9
20260508151525 14 309 19.3 30.6 0.00 0.00 0.00 35 1004.9
20260508150020 13 273 14.5 24.1 0.00 0.00 0.00 39 1004.9
20260508144517 13 271 12.9 22.5 0.00 0.00 0.00 43 1005.0
20260508143016 12 286 16.1 20.9 0.00 0.00 0.00 44 1005.2
20260508141510 11 269 11.3 22.5 0.00 0.00 0.00 46 1005.3
20260508140006 10 250 0.0 11.3 0.00 0.00 0.00 52 1005.6
20260508134504 9 250 6.4 12.9 0.00 0.00 0.00 52 1005.6
20260508133101 8 233 0.0 0.0 0.00 0.00 0.00 57 1005.7
20260508131552 7 239 0.0 0.0 0.00 0.00 0.00 61 1005.8
20260508130048 6 240 0.0 0.0 0.00 0.00 0.00 65 1005.9